Home > Weather > Setúbal > Past weeks

Flag for Portugal Weather for the Past 2 Weeks in Setúbal, Portugal

Now
68 °F

Sunny.


Feels Like: 68 °F
Forecast: 58 / 80 °F
Wind: 13 mph from Northeast

Location: Lisbon Portela Airport

Current Time: May 2, 2016 at 12:05:22 PM

Latest Report: May 2, 2016 at 11:30 AM


Visibility: 10 mi

Pressure: 30.15 "Hg

Humidity: 33%

Dew Point: 37 °F

Location of SetúbalLocation

Historic Weather in Setúbal — Graph

°F

Setúbal Temperature Yesterday

Maximum temperature yesterday: 75 °F (at 4:00 PM)
Minimum temperature yesterday: 54 °F (at 4:30 AM)
Average temperature yesterday: 64 °F

High & Low Weather Summary for the Past Weeks

 TemperatureHumidityPressure
High75 °F (Apr 25, 2:30 PM)100% (Apr 20, 6:00 AM)30.24 "Hg (Apr 20, 6:00 AM)
Low50 °F (Apr 18, 2:00 AM)22% (May 1, 5:00 PM)29.74 "Hg (Apr 19, 4:30 AM)
Average60 °F72%30.01 "Hg
* Reported Apr 17 11:00 AM — May 2 11:00 AM, Setúbal, Weather by CustomWeather, © 2016

Note: Actual official high and low records may vary slightly from our data, if they occured in-between our weather recording intervals... More about our weather records

Advertising

Setúbal Weather History for the Previous 24 Hours

Scroll right to see more
 ConditionsComfort  
Time TempWeatherWind HumidityBarometerVisibility
11:00 AM
Mon, May 2
66 °FPassing clouds.14 mph37%30.15 "HgN/A
10:30 AM66 °FPassing clouds.13 mph35%30.15 "HgN/A
10:00 AM64 °FSunny.12 mph37%30.15 "Hg10 mi
9:30 AM63 °FSunny.13 mph37%30.15 "Hg10 mi
9:00 AM63 °FSunny.12 mph37%30.18 "Hg10 mi
8:30 AM61 °FSunny.13 mph36%30.18 "Hg10 mi
8:00 AM59 °FSunny.10 mph42%30.15 "Hg10 mi
7:30 AM59 °FClear.10 mph42%30.15 "Hg10 mi
6:00 AM61 °FClear.12 mph34%30.15 "Hg10 mi
5:30 AM59 °FClear.12 mph42%30.15 "Hg10 mi
5:00 AM59 °FClear.10 mph42%30.15 "Hg10 mi
4:30 AM61 °FClear.12 mph36%30.15 "Hg10 mi
4:00 AM59 °FClear.12 mph45%30.15 "Hg10 mi
3:30 AM61 °FClear.13 mph42%30.15 "Hg10 mi
3:00 AM63 °FClear.15 mph39%30.15 "Hg10 mi
2:30 AM63 °FClear.14 mph42%30.18 "Hg10 mi
2:00 AM63 °FClear.13 mph42%30.18 "Hg10 mi
1:30 AM63 °FClear.10 mph42%30.18 "Hg10 mi
1:00 AM59 °FClear.8 mph55%30.18 "Hg10 mi
12:30 AM59 °FClear.8 mph59%30.18 "Hg10 mi
12:00 AM59 °FClear.9 mph59%30.18 "Hg10 mi
11:30 PM
Sun, May 1
61 °FPassing clouds.8 mph55%30.21 "HgN/A
11:00 PM59 °FClear.8 mph59%30.21 "Hg10 mi
10:30 PM61 °FClear.9 mph55%30.21 "Hg10 mi
10:00 PM61 °FClear.8 mph55%30.21 "Hg10 mi
9:30 PM63 °FClear.12 mph52%30.21 "Hg10 mi
9:00 PM63 °FSunny.15 mph52%30.18 "Hg10 mi
8:30 PM64 °FSunny.15 mph52%30.18 "Hg10 mi
8:00 PM66 °FSunny.15 mph49%30.18 "Hg10 mi
7:30 PM68 °FSunny.15 mph46%30.18 "Hg10 mi
7:00 PM70 °FSunny.16 mph43%30.18 "Hg10 mi
6:30 PM72 °FPassing clouds.15 mph41%30.18 "HgN/A
6:00 PM75 °FSunny.15 mph27%30.18 "Hg10 mi
5:30 PM75 °FPassing clouds.16 mph25%30.18 "HgN/A
5:00 PM75 °FPassing clouds.15 mph22%30.18 "HgN/A
4:30 PM73 °FSunny.14 mph27%30.21 "Hg10 mi
4:00 PM75 °FPassing clouds.16 mph25%30.21 "HgN/A
3:30 PM73 °FSunny.15 mph27%30.21 "Hg10 mi
3:00 PM72 °FSunny.14 mph31%30.21 "Hg10 mi
2:30 PM73 °FPassing clouds.15 mph27%30.21 "HgN/A
2:00 PM72 °FPassing clouds.16 mph31%30.24 "HgN/A
1:30 PM72 °FPassing clouds.16 mph31%30.24 "HgN/A
1:00 PM70 °FSunny.17 mph31%30.24 "Hg10 mi
12:30 PM72 °FPassing clouds.15 mph31%30.24 "HgN/A
12:00 PM68 °FPassing clouds.16 mph35%30.24 "HgN/A
Weather by CustomWeather, © 2016

See weather overviewHow to use our weather pages